Location: Newark
(36.0797°N, 3.9744°E)
Time: 11:30:52
(UTC+00:00)

Tiros 1 - Pass Details

Date: 17 December 2019
Orbit: 630 x 664 km, 48.4° (Epoch: 18 January)

Event Time Altitude Azimuth Distance (km) Brightness Sun altitude
Exits shadow 03:46:17 11° 45° (NE) 1,992 10.0 -35.9°
Drops below altitude 10° 03:46:24 10° 45° (NE) 2,035 10.1 -35.9°
Sets 03:48:50 0° 51° (NE) 2,952 11.1 -35.4°
